Location: Campestrin
(46.4667°N, 11.7167°E)
Time: 03:47:52
(UTC+00:00)

OBJECT-B - Pass Details

Date: 18 April 2021
Orbit: 415 x 424 km, 97.0° (Epoch: 25 April)

Event Time Altitude Azimuth Distance (km) Brightness Sun altitude
Exits shadow 19:45:44 - 201° (SSW) 2,081 4.1 -16.2°
Reaches altitude 10° 19:47:22 10° 215° (SW) 1,498 3.5 -16.4°
Maximum altitude 19:49:51 21° 266° (W) 1,023 3.3 -16.8°
Drops below altitude 10° 19:52:21 10° 317° (NW) 1,514 4.8 -17.1°
Sets 19:54:43 0° 334° (NNW) 2,387 5.8 -17.4°
